User: anonymous   Login
Location: Bodest
(46.3000°N, 22.5667°E)
Time: 18:18:29
(UTC+00:00)
Language:

Ariane Rocket - Orbit

View from above orbital plane
View from above orbital plane
View from above satellite
View from above satellite

Ground track
Ground track

The orbit data is extracted from the following two-line orbital elements,

1 23561U 95021B   22024.17871977  .00000070  00000-0  38139-4 0  9996
2 23561  98.6456  80.7736 0006148 321.9801 102.9509 14.38079700402978
Epoch (UTC): 24 January 2022 04:17:21
Eccentricity: 0.0006148
inclination: 98.6456°
perigee height: 760 km
apogee height: 769 km
right ascension of ascending node: 80.7736°
argument of perigee: 321.9801°
revolutions per day: 14.38079700
mean anomaly at epoch: 102.9509°
orbit number at epoch: 40297

The dashed part of the orbit path shows where the satellite is in the earth's shadow,  

DLR